When you browse on this site, cookies collect data to enhance your experience and personalize the content and advertising you see.
Visit our Privacy Policy to learn more. By continuing to use the site, you agree to this use of cookies and data.
  • In United Kingdom
  • List of Countries
  • For 7 days
  • Water Temperature
  • Weather Map
  • Weather Widgets
  • user-avatar
    Login

    Hourly Weather Pechykhvosty

    Today, 22 September, Sunday

    Time Temperature Precipitation Wind Pressure Humidity
    00:00 +7°C° 0 mm 4 mps 745 mmHg 75%
    01:00 +7°C° 0 mm 4 mps 745 mmHg 73%
    02:00 +7°C° 0 mm 4 mps 745 mmHg 71%
    03:00 +7°C° 0 mm 4 mps 745 mmHg 71%
    04:00 +7°C° 0 mm 4 mps 745 mmHg 71%
    05:00 +8°C° 0 mm 3 mps 745 mmHg 71%
    06:00 +8°C° 0 mm 4 mps 745 mmHg 69%
    07:00 +10°C° 0 mm 4 mps 745 mmHg 68%
    08:00 +11°C° 0 mm 4 mps 745 mmHg 66%
    09:00 +13°C° 0 mm 4 mps 744 mmHg 62%
    10:00 +15°C° 0 mm 4 mps 744 mmHg 58%
    11:00 +18°C° 0 mm 4 mps 744 mmHg 54%
    12:00 +18°C° 0 mm 4 mps 744 mmHg 53%
    13:00 +19°C° 0 mm 4 mps 744 mmHg 51%
    14:00 +20°C° 0 mm 4 mps 743 mmHg 50%
    15:00 +20°C° 0 mm 3 mps 743 mmHg 53%
    16:00 +19°C° 0 mm 3 mps 743 mmHg 56%
    17:00 +19°C° 0 mm 2 mps 742 mmHg 59%
    18:00 +17°C° 0 mm 2 mps 742 mmHg 65%
    19:00 +15°C° 0 mm 1 mps 742 mmHg 70%
    20:00 +13°C° 0 mm 1 mps 742 mmHg 76%
    21:00 +12°C° 0 mm 1 mps 742 mmHg 76%
    22:00 +12°C° 0 mm 1 mps 742 mmHg 77%
    23:00 +11°C° 0 mm 1 mps 742 mmHg 78%

    Tomorrow, 23 September, Monday

    Time Temperature Precipitation Wind Pressure Humidity
    00:00 +11°C° 0 mm 1 mps 742 mmHg 78%
    01:00 +11°C° 0 mm 1 mps 742 mmHg 78%
    02:00 +9°C° 0 mm 0 mps 742 mmHg 79%
    03:00 +9°C° 0 mm 0 mps 742 mmHg 79%
    04:00 +9°C° 0 mm 0 mps 742 mmHg 79%
    05:00 +8°C° 0 mm 0 mps 741 mmHg 80%
    06:00 +10°C° 0 mm 1 mps 742 mmHg 76%
    07:00 +12°C° 0 mm 1 mps 742 mmHg 72%
    08:00 +13°C° 0 mm 1 mps 742 mmHg 68%
    09:00 +15°C° 0 mm 1 mps 742 mmHg 63%
    10:00 +17°C° 0 mm 2 mps 742 mmHg 59%
    11:00 +19°C° 0 mm 2 mps 742 mmHg 54%
    12:00 +20°C° 0 mm 2 mps 742 mmHg 51%
    13:00 +21°C° 0 mm 2 mps 741 mmHg 49%
    14:00 +23°C° 0 mm 2 mps 741 mmHg 46%
    15:00 +21°C° 0 mm 2 mps 741 mmHg 50%
    16:00 +21°C° 0 mm 2 mps 741 mmHg 53%
    17:00 +20°C° 0 mm 2 mps 740 mmHg 57%
    18:00 +18°C° 0 mm 2 mps 740 mmHg 67%
    19:00 +16°C° 0 mm 3 mps 741 mmHg 76%
    20:00 +12°C° 0 mm 3 mps 741 mmHg 86%
    21:00 +12°C° 0 mm 3 mps 741 mmHg 88%
    22:00 +11°C° 0 mm 3 mps 741 mmHg 91%
    23:00 +10°C° 0 mm 3 mps 741 mmHg 93%

    Day after tomorrow, 24 September, Tuesday

    Time Temperature Precipitation Wind Pressure Humidity
    00:00 +10°C° 0 mm 2 mps 741 mmHg 93%
    01:00 +9°C° 0 mm 2 mps 741 mmHg 94%
    02:00 +9°C° 0 mm 2 mps 741 mmHg 94%
    03:00 +9°C° 0 mm 2 mps 741 mmHg 94%
    04:00 +9°C° 0 mm 2 mps 741 mmHg 94%
    05:00 +9°C° 0 mm 1 mps 740 mmHg 93%
    06:00 +10°C° 0 mm 1 mps 740 mmHg 90%
    07:00 +11°C° 0 mm 1 mps 740 mmHg 86%
    08:00 +12°C° 0 mm 1 mps 740 mmHg 83%
    09:00 +14°C° 0 mm 2 mps 740 mmHg 75%
    10:00 +17°C° 0 mm 2 mps 740 mmHg 67%
    11:00 +19°C° 0 mm 2 mps 740 mmHg 59%
    12:00 +20°C° 0 mm 2 mps 740 mmHg 55%
    13:00 +21°C° 0 mm 3 mps 740 mmHg 51%
    14:00 +22°C° 0 mm 3 mps 739 mmHg 48%
    15:00 +21°C° 0 mm 3 mps 739 mmHg 51%
    16:00 +21°C° 0 mm 2 mps 739 mmHg 54%
    17:00 +20°C° 0 mm 2 mps 738 mmHg 58%
    18:00 +18°C° 0 mm 2 mps 738 mmHg 63%
    19:00 +16°C° 0 mm 3 mps 738 mmHg 68%
    20:00 +13°C° 0 mm 3 mps 738 mmHg 73%
    21:00 +13°C° 0 mm 3 mps 738 mmHg 75%
    22:00 +12°C° 0 mm 3 mps 738 mmHg 76%
    23:00 +11°C° 0 mm 3 mps 738 mmHg 78%

    25 September, Wednesday

    Time Temperature Precipitation Wind Pressure Humidity
    00:00 +11°C° 0 mm 3 mps 738 mmHg 78%
    01:00 +11°C° 0 mm 3 mps 738 mmHg 78%
    02:00 +11°C° 0 mm 3 mps 737 mmHg 78%
    03:00 +11°C° 0 mm 3 mps 737 mmHg 78%
    04:00 +11°C° 0 mm 3 mps 737 mmHg 78%
    05:00 +11°C° 0 mm 3 mps 737 mmHg 78%
    06:00 +12°C° 0 mm 3 mps 737 mmHg 77%
    07:00 +13°C° 0 mm 4 mps 736 mmHg 77%
    08:00 +13°C° 0 mm 4 mps 736 mmHg 76%
    09:00 +15°C° 0 mm 4 mps 736 mmHg 73%
    10:00 +17°C° 0 mm 3 mps 737 mmHg 70%
    11:00 +18°C° 0 mm 3 mps 737 mmHg 66%
    12:00 +18°C° 0.1 mm 3 mps 737 mmHg 66%
    13:00 +19°C° 0.1 mm 2 mps 736 mmHg 65%
    14:00 +19°C° 0.1 mm 2 mps 736 mmHg 65%
    15:00 +18°C° 0.1 mm 2 mps 736 mmHg 70%
    16:00 +17°C° 0.1 mm 2 mps 736 mmHg 75%
    17:00 +16°C° 0.1 mm 2 mps 735 mmHg 80%
    18:00 +14°C° 0 mm 3 mps 735 mmHg 83%
    19:00 +14°C° 0 mm 3 mps 736 mmHg 86%
    20:00 +13°C° 0 mm 3 mps 736 mmHg 89%
    21:00 +13°C° 0.1 mm 3 mps 736 mmHg 89%
    22:00 +13°C° 0.1 mm 3 mps 736 mmHg 89%
    23:00 +13°C° 0.1 mm 3 mps 736 mmHg 89%

    26 September, Thursday

    Time Temperature Precipitation Wind Pressure Humidity
    00:00 +13°C° 0.1 mm 3 mps 736 mmHg 90%
    01:00 +14°C° 0.1 mm 4 mps 736 mmHg 90%
    02:00 +14°C° 0.1 mm 4 mps 736 mmHg 91%
    03:00 +13°C° 0.1 mm 4 mps 736 mmHg 91%
    04:00 +13°C° 0.1 mm 4 mps 736 mmHg 90%
    05:00 +13°C° 0.1 mm 4 mps 736 mmHg 90%
    06:00 +13°C° 0 mm 4 mps 737 mmHg 89%
    07:00 +13°C° 0 mm 4 mps 737 mmHg 87%
    08:00 +13°C° 0 mm 5 mps 737 mmHg 86%
    09:00 +14°C° 0 mm 5 mps 738 mmHg 79%
    10:00 +15°C° 0 mm 5 mps 738 mmHg 72%
    11:00 +16°C° 0 mm 5 mps 738 mmHg 66%
    12:00 +17°C° 0 mm 5 mps 738 mmHg 62%
    13:00 +17°C° 0 mm 6 mps 738 mmHg 58%
    14:00 +19°C° 0 mm 6 mps 738 mmHg 55%
    15:00 +17°C° 0.1 mm 5 mps 738 mmHg 58%
    16:00 +18°C° 0.1 mm 4 mps 738 mmHg 62%
    17:00 +17°C° 0.1 mm 3 mps 738 mmHg 65%
    18:00 +16°C° 0.1 mm 3 mps 738 mmHg 71%
    19:00 +13°C° 0.1 mm 3 mps 739 mmHg 78%
    20:00 +13°C° 0.1 mm 2 mps 739 mmHg 84%
    21:00 +11°C° 0 mm 3 mps 739 mmHg 86%
    22:00 +11°C° 0 mm 3 mps 739 mmHg 87%
    23:00 +11°C° 0 mm 4 mps 740 mmHg 89%

    27 September, Friday

    Time Temperature Precipitation Wind Pressure Humidity
    00:00 +10°C° 0 mm 4 mps 740 mmHg 91%
    01:00 +10°C° 0 mm 3 mps 740 mmHg 93%
    02:00 +10°C° 0 mm 3 mps 740 mmHg 94%
    03:00 +10°C° 0.1 mm 3 mps 740 mmHg 93%
    04:00 +11°C° 0.1 mm 3 mps 740 mmHg 91%
    05:00 +11°C° 0.1 mm 3 mps 740 mmHg 90%
    06:00 +12°C° 0.1 mm 3 mps 740 mmHg 89%
    07:00 +12°C° 0.1 mm 3 mps 740 mmHg 88%
    08:00 +13°C° 0.1 mm 3 mps 740 mmHg 87%
    09:00 +14°C° 0 mm 4 mps 740 mmHg 81%
    10:00 +15°C° 0 mm 4 mps 741 mmHg 75%
    11:00 +18°C° 0 mm 4 mps 741 mmHg 69%
    12:00 +17°C° 0 mm 4 mps 741 mmHg 71%
    13:00 +17°C° 0 mm 4 mps 741 mmHg 72%
    14:00 +15°C° 0 mm 4 mps 740 mmHg 74%
    15:00 +16°C° 0.1 mm 3 mps 740 mmHg 77%
    16:00 +15°C° 0.1 mm 2 mps 740 mmHg 80%
    17:00 +15°C° 0.1 mm 2 mps 740 mmHg 84%
    18:00 +14°C° 0 mm 1 mps 741 mmHg 85%
    19:00 +14°C° 0 mm 1 mps 741 mmHg 85%
    20:00 +14°C° 0 mm 1 mps 741 mmHg 86%
    21:00 +14°C° 0 mm 1 mps 741 mmHg 87%
    22:00 +13°C° 0 mm 1 mps 741 mmHg 88%
    23:00 +13°C° 0 mm 1 mps 741 mmHg 89%
    Show more